• In Uzbekistan
  • List of Countries
  • For 7 days
  • Water Temperature
  • Satellite Maps
  • Weather Map
  • Weather Widgets
  • user-avatar
    Login

    Hourly Weather Bobiecino

    Today, 24 April, Tuesday

    Time Temperature Precipitation Wind Pressure Humidity
    00:00 +6°C° 0 mm 4 mps 743 mmHg 82%
    01:00 +6°C° 0 mm 4 mps 743 mmHg 84%
    02:00 +5°C° 0 mm 4 mps 743 mmHg 85%
    03:00 +5°C° 0 mm 4 mps 743 mmHg 87%
    04:00 +4°C° 0 mm 4 mps 743 mmHg 89%
    05:00 +5°C° 0 mm 4 mps 743 mmHg 84%
    06:00 +6°C° 0 mm 5 mps 743 mmHg 79%
    07:00 +7°C° 0 mm 5 mps 743 mmHg 74%
    08:00 +8°C° 0 mm 5 mps 743 mmHg 68%
    09:00 +10°C° 0 mm 5 mps 743 mmHg 62%
    10:00 +11°C° 0 mm 6 mps 743 mmHg 56%
    11:00 +13°C° 0 mm 6 mps 743 mmHg 57%
    12:00 +13°C° 0 mm 6 mps 743 mmHg 58%
    13:00 +13°C° 0 mm 6 mps 742 mmHg 59%
    14:00 +11°C° 0.8 mm 6 mps 742 mmHg 68%
    15:00 +10°C° 0.8 mm 6 mps 742 mmHg 77%
    16:00 +9°C° 0.8 mm 6 mps 742 mmHg 86%
    17:00 +9°C° 0.2 mm 6 mps 742 mmHg 87%
    18:00 +8°C° 0.2 mm 6 mps 742 mmHg 87%
    19:00 +8°C° 0.2 mm 6 mps 742 mmHg 87%
    20:00 +8°C° 0.1 mm 5 mps 742 mmHg 88%
    21:00 +7°C° 0.1 mm 5 mps 742 mmHg 88%
    22:00 +7°C° 0.1 mm 5 mps 742 mmHg 88%
    23:00 +6°C° 0 mm 5 mps 742 mmHg 88%

    Tomorrow, 25 April, Wednesday

    Time Temperature Precipitation Wind Pressure Humidity
    00:00 +6°C° 0 mm 4 mps 742 mmHg 88%
    01:00 +6°C° 0 mm 4 mps 742 mmHg 88%
    02:00 +5°C° 0 mm 4 mps 742 mmHg 90%
    03:00 +5°C° 0 mm 4 mps 741 mmHg 91%
    04:00 +5°C° 0 mm 3 mps 741 mmHg 93%
    05:00 +7°C° 0.2 mm 3 mps 741 mmHg 91%
    06:00 +7°C° 0.2 mm 3 mps 741 mmHg 90%
    07:00 +8°C° 0.2 mm 3 mps 740 mmHg 88%
    08:00 +8°C° 0.9 mm 3 mps 740 mmHg 90%
    09:00 +9°C° 0.9 mm 3 mps 740 mmHg 91%
    10:00 +9°C° 0.9 mm 2 mps 739 mmHg 93%
    11:00 +10°C° 1 mm 3 mps 739 mmHg 92%
    12:00 +10°C° 1 mm 4 mps 738 mmHg 91%
    13:00 +10°C° 1 mm 5 mps 738 mmHg 90%
    14:00 +11°C° 0.4 mm 4 mps 738 mmHg 90%
    15:00 +11°C° 0.4 mm 4 mps 738 mmHg 89%
    16:00 +11°C° 0.4 mm 3 mps 737 mmHg 88%
    17:00 +10°C° 0.2 mm 3 mps 737 mmHg 90%
    18:00 +10°C° 0.2 mm 2 mps 737 mmHg 92%
    19:00 +9°C° 0.2 mm 2 mps 737 mmHg 94%
    20:00 +8°C° 0 mm 2 mps 738 mmHg 95%
    21:00 +7°C° 0 mm 2 mps 738 mmHg 96%
    22:00 +6°C° 0 mm 2 mps 738 mmHg 97%
    23:00 +6°C° 0 mm 2 mps 738 mmHg 97%

    Day after tomorrow, 26 April, Thursday

    Time Temperature Precipitation Wind Pressure Humidity
    00:00 +5°C° 0 mm 2 mps 738 mmHg 96%
    01:00 +5°C° 0 mm 2 mps 739 mmHg 96%
    02:00 +3°C° 0 mm 3 mps 739 mmHg 96%
    03:00 +3°C° 0 mm 3 mps 739 mmHg 96%
    04:00 +3°C° 0 mm 3 mps 739 mmHg 96%
    05:00 +4°C° 0 mm 3 mps 740 mmHg 93%
    06:00 +5°C° 0 mm 4 mps 740 mmHg 90%
    07:00 +6°C° 0 mm 4 mps 740 mmHg 87%
    08:00 +7°C° 0.1 mm 5 mps 741 mmHg 83%
    09:00 +8°C° 0.1 mm 5 mps 741 mmHg 79%
    10:00 +8°C° 0.1 mm 5 mps 741 mmHg 75%
    11:00 +9°C° 0.4 mm 5 mps 741 mmHg 74%
    12:00 +9°C° 0.4 mm 5 mps 741 mmHg 73%
    13:00 +10°C° 0.4 mm 5 mps 741 mmHg 72%
    14:00 +9°C° 0.4 mm 5 mps 741 mmHg 73%
    15:00 +9°C° 0.4 mm 5 mps 741 mmHg 74%
    16:00 +9°C° 0.4 mm 5 mps 741 mmHg 74%
    17:00 +8°C° 0.1 mm 5 mps 742 mmHg 78%
    18:00 +7°C° 0.1 mm 4 mps 742 mmHg 82%
    19:00 +6°C° 0.1 mm 4 mps 742 mmHg 86%
    20:00 +6°C° 0 mm 4 mps 742 mmHg 88%
    21:00 +5°C° 0 mm 4 mps 743 mmHg 90%
    22:00 +5°C° 0 mm 4 mps 743 mmHg 91%
    23:00 +4°C° 0 mm 4 mps 743 mmHg 92%

    27 April, Friday

    Time Temperature Precipitation Wind Pressure Humidity
    00:00 +4°C° 0 mm 4 mps 743 mmHg 92%
    01:00 +4°C° 0 mm 4 mps 744 mmHg 93%
    02:00 +3°C° 0 mm 4 mps 744 mmHg 93%
    03:00 +3°C° 0 mm 4 mps 744 mmHg 94%
    04:00 +1°C° 0 mm 4 mps 744 mmHg 95%
    05:00 +3°C° 0 mm 4 mps 744 mmHg 91%
    06:00 +4°C° 0 mm 4 mps 745 mmHg 87%
    07:00 +5°C° 0 mm 4 mps 745 mmHg 83%
    08:00 +6°C° 0 mm 4 mps 745 mmHg 75%
    09:00 +8°C° 0 mm 4 mps 746 mmHg 67%
    10:00 +9°C° 0 mm 5 mps 746 mmHg 59%
    11:00 +11°C° 0.1 mm 4 mps 746 mmHg 55%
    12:00 +12°C° 0.1 mm 4 mps 746 mmHg 52%
    13:00 +13°C° 0.1 mm 4 mps 746 mmHg 48%
    14:00 +13°C° 0.1 mm 4 mps 746 mmHg 49%
    15:00 +13°C° 0.1 mm 4 mps 746 mmHg 50%
    16:00 +13°C° 0.1 mm 3 mps 746 mmHg 51%
    17:00 +13°C° 0.1 mm 2 mps 746 mmHg 57%
    18:00 +11°C° 0.1 mm 1 mps 746 mmHg 63%
    19:00 +9°C° 0.1 mm 0 mps 746 mmHg 69%
    20:00 +9°C° 0 mm 1 mps 746 mmHg 72%
    21:00 +9°C° 0 mm 1 mps 746 mmHg 74%
    22:00 +8°C° 0 mm 1 mps 746 mmHg 76%
    23:00 +8°C° 0 mm 1 mps 746 mmHg 77%

    28 April, Saturday

    Time Temperature Precipitation Wind Pressure Humidity
    00:00 +6°C° 0 mm 2 mps 746 mmHg 78%
    01:00 +6°C° 0 mm 2 mps 746 mmHg 79%
    02:00 +6°C° 0 mm 2 mps 746 mmHg 78%
    03:00 +6°C° 0 mm 2 mps 746 mmHg 77%
    04:00 +6°C° 0 mm 2 mps 745 mmHg 77%
    05:00 +7°C° 0 mm 3 mps 745 mmHg 72%
    06:00 +9°C° 0 mm 3 mps 745 mmHg 68%
    07:00 +10°C° 0 mm 3 mps 745 mmHg 63%
    08:00 +12°C° 0 mm 4 mps 745 mmHg 58%
    09:00 +14°C° 0 mm 4 mps 745 mmHg 52%
    10:00 +17°C° 0 mm 4 mps 745 mmHg 47%
    11:00 +17°C° 0 mm 4 mps 745 mmHg 48%
    12:00 +17°C° 0 mm 4 mps 744 mmHg 50%
    13:00 +17°C° 0 mm 4 mps 744 mmHg 51%
    14:00 +17°C° 0 mm 4 mps 744 mmHg 53%
    15:00 +17°C° 0 mm 3 mps 743 mmHg 56%
    16:00 +17°C° 0 mm 3 mps 743 mmHg 58%
    17:00 +14°C° 0 mm 3 mps 743 mmHg 64%
    18:00 +13°C° 0 mm 3 mps 743 mmHg 70%
    19:00 +13°C° 0 mm 2 mps 743 mmHg 76%
    20:00 +12°C° 0 mm 2 mps 743 mmHg 79%
    21:00 +12°C° 0 mm 2 mps 743 mmHg 82%
    22:00 +10°C° 0 mm 2 mps 743 mmHg 84%
    23:00 +9°C° 0 mm 2 mps 743 mmHg 86%

    29 April, Sunday

    Time Temperature Precipitation Wind Pressure Humidity
    00:00 +9°C° 0 mm 2 mps 743 mmHg 87%
    01:00 +9°C° 0 mm 2 mps 742 mmHg 88%
    02:00 +8°C° 0 mm 2 mps 742 mmHg 89%
    03:00 +8°C° 0 mm 2 mps 742 mmHg 91%
    04:00 +8°C° 0 mm 2 mps 742 mmHg 92%
    05:00 +9°C° 0 mm 2 mps 742 mmHg 87%
    06:00 +12°C° 0 mm 2 mps 742 mmHg 82%
    07:00 +12°C° 0 mm 3 mps 742 mmHg 77%
    08:00 +14°C° 0 mm 3 mps 742 mmHg 71%
    09:00 +17°C° 0 mm 3 mps 742 mmHg 66%
    10:00 +19°C° 0 mm 4 mps 742 mmHg 61%
    11:00 +20°C° 0 mm 4 mps 742 mmHg 59%
    12:00 +21°C° 0 mm 4 mps 741 mmHg 57%
    13:00 +21°C° 0 mm 4 mps 741 mmHg 56%
    14:00 +21°C° 0.2 mm 5 mps 741 mmHg 59%
    15:00 +20°C° 0.2 mm 5 mps 740 mmHg 63%
    16:00 +20°C° 0.2 mm 5 mps 740 mmHg 67%
    17:00 +17°C° 0.5 mm 5 mps 739 mmHg 74%
    18:00 +16°C° 0.5 mm 5 mps 739 mmHg 82%
    19:00 +14°C° 0.5 mm 5 mps 739 mmHg 89%
    20:00 +14°C° 0.5 mm 5 mps 738 mmHg 91%
    21:00 +14°C° 0.5 mm 4 mps 738 mmHg 93%
    22:00 +13°C° 0.5 mm 4 mps 738 mmHg 95%
    23:00 +13°C° 0.5 mm 4 mps 737 mmHg 95%
    Show more